Regional Weather Roundup
Issued by NWS Sioux Falls, SD

Home | Current Version | Previous Version | Text Only | Print | Product List | Glossary On
Versions: 1 2 3 4 5 6 7 8 9 10 11 12 13 14 15 16 17 18 19 20 21 22 23 24 25 26 27 28 29 30 31 32 33 34 35 36 37 38 39 40 41 42 43 44 45 46 47 48 49 50
000
ASUS43 KFSD 200002
RWRFSD

WEATHER ROUNDUP FOR SE SOUTH DAKOTA/SW MINNESOTA/NW IOWA
NATIONAL WEATHER SERVICE SIOUX FALLS SD
600 PM CST FRI JAN 19 2018

NOTE: "FAIR" INDICATES FEW OR NO CLOUDS BELOW 12,000 FEET WITH NO
SIGNIFICANT WEATHER AND OR OBSTRUCTIONS TO VISIBILITY.


SDZ038>040-050-052>070-200100-
SOUTHEAST SOUTH DAKOTA

CITY           SKY/WX    TMP DP  RH WIND       PRES   REMARKS
BROOKINGS      CLOUDY    38  30  73 W3        29.64R
CHAMBERLAIN    CLOUDY    42  34  72 W9        29.70R
6HR MIN TEMP:  40; 6HR MAX TEMP:  46;

HURON          CLOUDY    39  31  72 NW10      29.67R
6HR MIN TEMP:  35; 6HR MAX TEMP:  47;

MADISON        FAIR      36  36 100 W9        29.64R
MITCHELL       CLOUDY    37  32  82 SW6       29.68R
6HR MIN TEMP:  37; 6HR MAX TEMP:  47;

SIOUX FALLS    CLOUDY    37  32  82 NW8       29.65R
6HR MIN TEMP:  37; 6HR MAX TEMP:  52;

WINNER         FAIR      40  32  73 NW6       29.71R
YANKTON        CLOUDY    40  32  73 NW9       29.66R
$$

MNZ071-072-080-081-089-090-097-098-200100-
SOUTHWEST MINNESOTA

CITY           SKY/WX    TMP DP  RH WIND       PRES   REMARKS
FAIRMONT       CLOUDY    40  33  76 W12       29.61R
JACKSON        CLOUDY    37  32  81 W9        29.61S
LUVERNE        CLOUDY    36  32  87 NW7       29.65R
MARSHALL       CLOUDY    37  29  72 W8        29.64R
6HR MIN TEMP:  37; 6HR MAX TEMP:  50;

MONTEVIDEO     PTCLDY    41  30  65 N5        29.61R
PIPESTONE      CLOUDY    34  30  86 W5        29.63R WCI  30
REDWOOD FALLS  CLOUDY    40  33  76 W8        29.61R
TRACY          CLOUDY    41  32  71 W5        29.63R
WINDOM         CLOUDY    36  21  55 W5        29.62R
WORTHINGTON    CLOUDY    36  32  85 W9        29.63R
$$

IAZ001>003-012>014-020>022-031-032-NEZ013-014-SDZ071-200100-
NORTHWEST IOWA

CITY           SKY/WX    TMP DP  RH WIND       PRES   REMARKS
CHEROKEE       CLOUDY    42  30  64 CALM      29.65R
DENISON        CLOUDY    39  30  70 S8        29.68R
ESTHERVILLE    CLOUDY    37  33  85 W5        29.61R
LE MARS        CLOUDY    45  34  65 NW6G14    29.65R
ORANGE CITY    CLOUDY    43  36  75 NW7       29.64R
SHELDON        CLOUDY    39  34  81 NW8       29.63R
SIOUX CITY     CLOUDY    47  33  58 W8        29.65R
6HR MIN TEMP:  45; 6HR MAX TEMP:  57;

SPENCER        CLOUDY    40  31  70 W7        29.63R
6HR MIN TEMP:  39; 6HR MAX TEMP:  51;

STORM LAKE     CLOUDY    43  30  61 W10       29.64R
$$

ABBREVIATIONS USED IN REMARKS
   TC - TEMPERATURE IN CELSIUS
  WCI - WIND CHILL INDEX
   HX - HEAT INDEX
  VSB - VISIBILITY





USA.gov is the U.S. government's official web portal to all federal, state and local government web resources and services.